Location: Ottawa
(45.4170°N, 75.7000°W)
Time: 01:42:59
(UTC-04:00)

Amateur Radio Satellites - All Passes

Search period start: 20 April 2014 01:12
Search period end: 21 April 2014 01:12
Location: Ottawa, 45.4170°N, 75.7000°W

Satellite Date Start Highest point End Downlink Frequencies (MHz)
Time Altitude Azimuth
SO-50 20 Apr 01:22:06 01:26:10 31° 244° (WSW) 01:30:18 436.795 FM
Oscar 10/S400 20 Apr 01:52:29 02:06:33 18° 125° (SE) 02:33:06 145.825 - 145.975 CW/USB, Beacon 145.810 USB
UOSAT-12 20 Apr 02:02:06 02:06:44 52° 49° (NE) 02:11:20 437.025 FM, 437.400 FM
Sapphire 20 Apr 02:07:19 02:12:28 43° 310° (NW) 02:17:39 437.095 MHz 1200 baud AX-25 AFSK
AO-27 20 Apr 02:09:23 02:13:01 19° 91° (E) 02:16:38 436.795 MHz FM
ITAMSAT 1 20 Apr 02:19:39 02:23:44 23° 93° (E) 02:27:47 435.822 SSB
AO-Echo 20 Apr 02:22:32 02:25:50 18° 91° (E) 02:29:05 ?
Oscar 19 20 Apr 02:22:52 02:27:52 45° 99° (E) 02:32:50 437.125 CW, 437.150 USB
KITSAT 1 20 Apr 02:25:50 02:32:59 36° 109° (ESE) 02:40:10 435.175 FM
Oscar 16 20 Apr 02:31:09 02:36:18 57° 101° (E) 02:41:24 437.025 USB, Beacon 2401.1428
OPAL 20 Apr 02:40:56 02:45:58 82° 72° (ENE) 02:51:06 ?
PCSat 20 Apr 02:53:41 02:57:53 22° 320° (NW) 03:02:07 145.825 MHz
TMSAT-1 20 Apr 02:54:04 02:55:22 11° 86° (E) 02:56:40 436.925 FM
Uribyol 2 20 Apr 03:07:15 03:12:25 64° 102° (ESE) 03:17:33 436.500 FM
UOSAT-12 20 Apr 03:42:54 03:46:35 23° 247° (WSW) 03:50:15 437.025 FM, 437.400 FM
Gurwin Techsat 1B 20 Apr 03:43:03 03:48:07 43° 98° (E) 03:53:09 435.225 FM
AO-27 20 Apr 03:47:51 03:52:57 60° 289° (WNW) 03:58:02 436.795 MHz FM
Sapphire 20 Apr 03:55:16 03:57:23 12° 333° (NNW) 03:59:30 437.095 MHz 1200 baud AX-25 AFSK
ITAMSAT 1 20 Apr 03:58:30 04:03:29 49° 291° (WNW) 04:08:27 435.822 SSB
AO-Echo 20 Apr 04:00:18 04:04:59 53° 289° (WNW) 04:09:33 ?
Oscar 19 20 Apr 04:02:42 04:06:59 27° 297° (WNW) 04:11:15 437.125 CW, 437.150 USB
Oscar 16 20 Apr 04:11:22 04:15:15 22° 299° (WNW) 04:19:07 437.025 USB, Beacon 2401.1428
Uosat F 20 Apr 04:19:28 04:23:31 24° 94° (E) 04:27:33 435.120 FM
KITSAT 1 20 Apr 04:20:00 04:28:01 61° 310° (NW) 04:36:05 435.175 FM
OPAL 20 Apr 04:23:08 04:25:30 13° 270° (W) 04:27:54 ?
TMSAT-1 20 Apr 04:30:47 04:36:07 82° 104° (ESE) 04:41:25 436.925 FM
Uribyol 2 20 Apr 04:47:47 04:51:25 20° 300° (WNW) 04:55:03 436.500 FM
AO-7 20 Apr 04:50:33 04:58:02 35° 97° (E) 05:05:28 29.400 - 29.500 MHz
JAS-1B 20 Apr 04:52:14 04:57:51 58° 101° (ESE) 05:03:37 435.800 - 435.900 CW/SSB
AO-40 20 Apr 05:19:12 10:23:31 32° 180° (S) 17:07:30 Beacon 2401.320
STRAND 1 20 Apr 05:22:12 05:25:21 17° 58° (ENE) 05:28:30 ?
Gurwin Techsat 1B 20 Apr 05:23:25 05:27:54 28° 296° (WNW) 05:32:22 435.225 FM
RS-15 20 Apr 05:37:18 05:45:27 24° 101° (E) 05:53:23 29.354 - 29.394 USB, Beacon 29.352 USB
Uosat F 20 Apr 05:57:45 06:02:30 44° 291° (WNW) 06:07:14 435.120 FM
TMSAT-1 20 Apr 06:12:12 06:15:23 16° 302° (WNW) 06:18:33 436.925 FM
KITSAT 1 20 Apr 06:19:03 06:25:15 23° 336° (NNW) 06:31:28 435.175 FM
MaSat-1 20 Apr 06:36:36 06:39:18 36° 59° (ENE) 06:42:25 437.345 MHz
Hamsat 20 Apr 06:42:09 06:45:59 29° 95° (E) 06:49:48 145.90 MHz
AO-7 20 Apr 06:43:04 06:51:10 59° 296° (WNW) 06:59:15 29.400 - 29.500 MHz
JAS-1B 20 Apr 06:43:56 06:48:10 22° 301° (WNW) 06:52:27 435.800 - 435.900 CW/SSB
STRAND 1 20 Apr 06:58:50 07:03:57 76° 257° (WSW) 07:09:05 ?
Sapphire 20 Apr 07:27:41 07:29:55 12° 27° (NNE) 07:32:08 437.095 MHz 1200 baud AX-25 AFSK
JAS-2 20 Apr 07:32:06 07:36:56 32° 97° (E) 07:42:09 435.800 - 435.900 CW/SSB, 435.910 FM
SO-67 20 Apr 07:40:36 07:43:22 21° 94° (E) 07:46:07 435.3500 MHz FM
RS-15 20 Apr 07:44:55 07:56:14 86° 123° (ESE) 08:07:14 29.354 - 29.394 USB, Beacon 29.352 USB
PCSat 20 Apr 08:11:36 08:15:43 21° 39° (NE) 08:19:48 145.825 MHz
MaSat-1 20 Apr 08:16:11 08:17:33 12° 250° (WSW) 08:19:00 437.345 MHz
Hamsat 20 Apr 08:18:10 08:21:55 29° 292° (WNW) 08:25:41 145.90 MHz
KITSAT 1 20 Apr 08:19:07 08:24:10 17° 6° (N) 08:29:13 435.175 FM
HO-68 20 Apr 08:34:47 08:37:20 12° 85° (E) 08:39:51 435.675 MHz FM
AO-7 20 Apr 08:37:42 08:42:16 16° 318° (NW) 08:46:51 29.400 - 29.500 MHz
Sapphire 20 Apr 09:09:36 09:14:48 44° 50° (NE) 09:19:58 437.095 MHz 1200 baud AX-25 AFSK
SO-67 20 Apr 09:13:35 09:16:30 25° 291° (WNW) 09:19:25 435.3500 MHz FM
JAS-2 20 Apr 09:17:13 09:22:06 37° 293° (WNW) 09:27:23 435.800 - 435.900 CW/SSB, 435.910 FM
PCSat 20 Apr 09:54:22 09:59:49 84° 240° (WSW) 10:05:14 145.825 MHz
Oscar 11 20 Apr 09:56:31 09:59:35 18° 92° (E) 10:02:37 145.825 FM, Beacon 2401.500 USB
RS-15 20 Apr 09:59:48 10:09:57 38° 331° (NNW) 10:19:59 29.354 - 29.394 USB, Beacon 29.352 USB
KITSAT 1 20 Apr 10:15:31 10:22:37 32° 35° (NE) 10:29:40 435.175 FM
HO-68 20 Apr 10:19:09 10:26:20 68° 104° (ESE) 10:33:29 435.675 MHz FM
Sapphire 20 Apr 10:53:20 10:58:05 32° 249° (WSW) 11:02:47 437.095 MHz 1200 baud AX-25 AFSK
Saudisat 1A 20 Apr 11:08:18 11:12:34 46° 120° (ESE) 11:16:51 436.775 MHz
FUNcube-1 20 Apr 11:24:18 11:28:26 49° 100° (E) 11:32:39 145.950 - 145.970 MHz USB
Oscar 11 20 Apr 11:31:50 11:36:01 46° 289° (WNW) 11:40:11 145.825 FM, Beacon 2401.500 USB
PCSat 20 Apr 11:40:09 11:42:22 13° 258° (WSW) 11:44:36 145.825 MHz
Oscar 19 20 Apr 12:06:19 12:08:31 13° 55° (NE) 12:10:43 437.125 CW, 437.150 USB
HO-68 20 Apr 12:07:38 12:13:30 28° 303° (WNW) 12:19:22 435.675 MHz FM
KITSAT 1 20 Apr 12:10:50 12:18:59 85° 239° (WSW) 12:27:03 435.175 FM
Oscar 16 20 Apr 12:13:47 12:16:48 16° 58° (ENE) 12:19:50 437.025 USB, Beacon 2401.1428
RS-15 20 Apr 12:17:20 12:26:21 28° 5° (N) 12:35:21 29.354 - 29.394 USB, Beacon 29.352 USB
Saudisat 1A 20 Apr 12:48:32 12:52:22 27° 319° (NW) 12:56:13 436.775 MHz
Uribyol 2 20 Apr 12:50:16 12:53:41 18° 59° (ENE) 12:57:06 436.500 FM
FUNcube-1 20 Apr 13:01:41 13:04:32 18° 296° (WNW) 13:07:25 145.950 - 145.970 MHz USB
AO-27 20 Apr 13:29:22 13:34:05 36° 66° (ENE) 13:38:48 436.795 MHz FM
Gurwin Techsat 1B 20 Apr 13:29:58 13:32:28 14° 56° (NE) 13:34:58 435.225 FM
AO-Echo 20 Apr 13:36:55 13:41:33 33° 67° (ENE) 13:46:05 ?
ITAMSAT 1 20 Apr 13:39:37 13:44:29 43° 68° (ENE) 13:49:23 435.822 SSB
Oscar 19 20 Apr 13:41:53 13:47:01 80° 74° (ENE) 13:52:13 437.125 CW, 437.150 USB
Oscar 16 20 Apr 13:50:21 13:55:30 81° 256° (WSW) 14:00:42 437.025 USB, Beacon 2401.1428
JAS-1B 20 Apr 13:53:13 13:56:30 14° 53° (NE) 13:59:36 435.800 - 435.900 CW/SSB
AO-7 20 Apr 14:04:08 14:08:37 16° 41° (NE) 14:13:07 29.400 - 29.500 MHz
KITSAT 1 20 Apr 14:07:57 14:13:12 19° 259° (WSW) 14:18:26 435.175 FM
TMSAT-1 20 Apr 14:15:34 14:19:40 23° 62° (ENE) 14:23:46 436.925 FM
Uribyol 2 20 Apr 14:27:29 14:32:37 70° 257° (WSW) 14:37:48 436.500 FM
RS-15 20 Apr 14:31:41 14:42:11 48° 38° (NE) 14:52:48 29.354 - 29.394 USB, Beacon 29.352 USB
OPAL 20 Apr 14:49:41 14:53:14 18° 93° (E) 14:56:46 ?
ISS 20 Apr 15:01:28 15:04:13 24° 138° (SE) 15:06:58 145.800 FM
Gurwin Techsat 1B 20 Apr 15:06:18 15:11:37 82° 74° (ENE) 15:16:58 435.225 FM
AO-27 20 Apr 15:09:02 15:13:38 32° 264° (W) 15:18:15 436.795 MHz FM
Oscar 10/S400 20 Apr 15:10:15 15:59:56 14° 273° (W) 17:11:36 145.825 - 145.975 CW/USB, Beacon 145.810 USB
AO-Echo 20 Apr 15:15:31 15:20:16 35° 263° (W) 15:24:56 ?
ITAMSAT 1 20 Apr 15:19:50 15:24:09 26° 266° (W) 15:28:29 435.822 SSB
Oscar 19 20 Apr 15:24:26 15:27:00 14° 272° (W) 15:29:36 437.125 CW, 437.150 USB
Uosat F 20 Apr 15:34:40 15:39:23 43° 68° (ENE) 15:44:07 435.120 FM
Oscar 16 20 Apr 15:34:51 15:35:41 10° 274° (W) 15:36:31 437.025 USB, Beacon 2401.1428
JAS-1B 20 Apr 15:38:24 15:46:13 66° 71° (ENE) 15:52:45 435.800 - 435.900 CW/SSB
SO-50 20 Apr 15:38:40 15:43:00 51° 120° (ESE) 15:47:24 436.795 FM
AO-7 20 Apr 15:51:41 15:59:43 58° 64° (ENE) 16:07:47 29.400 - 29.500 MHz
TMSAT-1 20 Apr 15:54:04 15:59:14 54° 260° (W) 16:04:26 436.925 FM
OPAL 20 Apr 16:27:23 16:32:34 65° 290° (WNW) 16:37:43 ?
ISS 20 Apr 16:37:26 16:40:45 60° 335° (NNW) 16:44:05 145.800 FM
RS-15 20 Apr 16:44:19 16:55:02 64° 243° (WSW) 17:06:01 29.354 - 29.394 USB, Beacon 29.352 USB
Gurwin Techsat 1B 20 Apr 16:49:32 16:52:15 14° 272° (W) 16:54:58 435.225 FM
Uosat F 20 Apr 17:14:12 17:18:20 25° 266° (W) 17:22:30 435.120 FM
SO-50 20 Apr 17:20:04 17:23:50 26° 320° (NW) 17:27:39 436.795 FM
JAS-1B 20 Apr 17:30:52 17:37:09 26° 266° (W) 17:42:43 435.800 - 435.900 CW/SSB
Hamsat 20 Apr 17:38:02 17:41:36 28° 67° (ENE) 17:45:14 145.90 MHz
AO-7 20 Apr 17:45:27 17:52:51 36° 263° (W) 18:00:19 29.400 - 29.500 MHz
JAS-2 20 Apr 17:48:51 17:52:29 18° 60° (ENE) 17:55:58 435.800 - 435.900 CW/SSB, 435.910 FM
Saudisat 1A 20 Apr 17:54:31 17:57:07 15° 31° (NNE) 17:59:41 436.775 MHz
UOSAT-12 20 Apr 17:55:02 17:59:33 66° 122° (ESE) 18:04:12 437.025 FM, 437.400 FM
OPAL 20 Apr 18:09:01 18:10:28 11° 309° (NW) 18:11:55 ?
ISS 20 Apr 18:14:59 18:17:56 27° 355° (N) 18:20:53 145.800 FM
SO-67 20 Apr 18:18:04 18:19:26 12° 63° (ENE) 18:20:49 435.3500 MHz FM
RS-15 20 Apr 19:00:15 19:05:00 14° 265° (W) 19:09:50 29.354 - 29.394 USB, Beacon 29.352 USB
HO-68 20 Apr 19:06:34 19:10:16 15° 47° (NE) 19:13:58 435.675 MHz FM
STRAND 1 20 Apr 19:07:37 19:12:07 31° 96° (E) 19:16:35 ?
Hamsat 20 Apr 19:13:52 19:17:32 29° 265° (W) 19:21:16 145.90 MHz
JAS-2 20 Apr 19:31:25 19:37:10 70° 257° (WSW) 19:42:27 435.800 - 435.900 CW/SSB, 435.910 FM
Saudisat 1A 20 Apr 19:33:05 19:37:32 71° 52° (NE) 19:41:54 436.775 MHz
UOSAT-12 20 Apr 19:36:28 19:40:09 23° 323° (NW) 19:43:53 437.025 FM, 437.400 FM
SO-67 20 Apr 19:48:46 19:52:10 51° 261° (W) 19:55:36 435.3500 MHz FM
ISS 20 Apr 19:52:06 19:55:15 36° 16° (NNE) 19:58:24 145.800 FM
STRAND 1 20 Apr 20:46:42 20:51:21 37° 293° (WNW) 20:55:59 ?
HO-68 20 Apr 20:49:37 20:56:38 63° 68° (ENE) 21:03:41 435.675 MHz FM
Oscar 11 20 Apr 20:54:03 20:57:11 20° 64° (ENE) 21:00:20 145.825 FM, Beacon 2401.500 USB
Saudisat 1A 20 Apr 21:14:10 21:16:34 15° 250° (WSW) 21:18:58 436.775 MHz
ISS 20 Apr 21:28:49 21:32:08 56° 214° (SW) 21:35:25 145.800 FM
MaSat-1 20 Apr 22:20:25 22:22:59 34° 301° (WNW) 22:25:22 437.345 MHz
FUNcube-1 20 Apr 22:23:09 22:27:13 52° 72° (ENE) 22:31:16 145.950 - 145.970 MHz USB
SO-50 20 Apr 22:28:25 22:31:35 18° 34° (NE) 22:34:46 436.795 FM
Oscar 11 20 Apr 22:28:59 22:33:05 44° 261° (W) 22:37:15 145.825 FM, Beacon 2401.500 USB
HO-68 20 Apr 22:38:55 22:44:48 28° 267° (W) 22:50:45 435.675 MHz FM
Sapphire 20 Apr 23:54:38 23:58:55 24° 108° (ESE) 00:03:13 437.095 MHz 1200 baud AX-25 AFSK
FUNcube-1 21 Apr 00:01:33 00:03:58 15° 269° (W) 00:06:23 145.950 - 145.970 MHz USB
SO-50 21 Apr 00:08:11 00:12:50 85° 54° (NE) 00:17:33 436.795 FM
PCSat 21 Apr 00:38:05 00:43:22 59° 117° (ESE) 00:48:42 145.825 MHz
UOSAT-12 21 Apr 00:43:10 00:46:44 21° 36° (NE) 00:50:17 437.025 FM, 437.400 FM
